Location: Newark
(34.9756°N, 138.3828°E)
Time: 03:21:11
(UTC+00:00)

N. Korean satellite - Pass Details

Date: 11 December 2019
Orbit: 454 x 507 km, 97.2° (Epoch: 23 January)

Event Time Altitude Azimuth Distance (km) Brightness Sun altitude
Rises 08:51:15 0° 206° (SSW) 2,597 11.0 -15.2°
Reaches altitude 10° 08:54:06 10° 231° (SW) 1,718 10.4 -15.8°
Maximum altitude 08:56:14 15° 266° (W) 1,451 10.1 -16.2°
Drops below altitude 10° 08:58:21 10° 301° (WNW) 1,721 9.9 -16.6°
Sets 09:01:13 0° 326° (NNW) 2,605 10.5 -17.2°
